Weather History for Daytona Beach, FL

Change the Weather History Date:

Saturday, May 11, 2013

  Actual Average Record
Temperature  
Mean Temperature 80 °F 74 °F  
Max Temperature 90 °F 84 °F 95 °F (2011)
Min Temperature 69 °F 64 °F 49 °F (1984)
Degree Days  
Heating Degree Days 0 0  
Month to date heating degree days 0 0  
Since 1 July heating degree days 694 807  
Cooling Degree Days 15 9  
Month to date cooling degree days 73 88  
Year to date cooling degree days 441 375  
Growing Degree Days 29 (Base 50)    
Moisture  
Dew Point 68 °F    
Average Humidity 70    
Maximum Humidity 93    
Minimum Humidity 47    
Precipitation  
Precipitation T in 0.08 in 0.78 in (2009)
Month to date precipitation 4.40 0.76  
Year to date precipitation 10.19 12.70  
Sea Level Pressure  
Sea Level Pressure 30.02 in    
Wind  
Wind Speed 6 mph (SW)    
Max Wind Speed 21 mph    
Max Gust Speed 25 mph    
Visibility 9 miles    
Events Rain , Thunderstorm    
T = Trace of Precipitation, MM = Missing Value Source: NWS Daily Summary

Daily Weather History Graph

Daily Weather History Graph

Search for Another Location

Airport:

Trip Planner

Search our weather history database for the weather conditions in past years. The results will help you decide how hot, cold, wet, or windy it might be!

Date:

Astronomy

May. 11, 2013 Rise Set
Actual Time 6:34 AM EDT 8:06 PM EDT
Civil Twilight 6:09 AM EDT 8:32 PM EDT
Nautical Twilight 5:38 AM EDT 9:03 PM EDT
Astronomical Twilight 5:06 AM EDT 9:35 PM EDT
Moon 7:43 AM EDT (5/11) 9:43 PM EDT (5/11)
Length of Visible Light 14h 23m
Length of Day
13h 32m
Waxing Crescent, 3% of the Moon is Illuminated
May 11
Waxing Crescent
May 18
First Quarter
May 25
Full
May 31
Last Quarter
Jun 8
New

Hourly Weather History & Observations

Time (EDT) Temp. Heat Index Dew Point Humidity Pressure Visibility Wind Dir Wind Speed Gust Speed Precip Events Conditions
12:53 AM 71.1 °F - 69.1 °F 93% 30.07 in 6.0 mi Calm Calm - N/A   Scattered Clouds
1:53 AM 71.1 °F - 69.1 °F 93% 30.04 in 10.0 mi Calm Calm - N/A   Scattered Clouds
2:53 AM 73.0 °F - 69.1 °F 87% 30.04 in 9.0 mi SSW 8.1 mph - N/A   Mostly Cloudy
3:53 AM 71.1 °F - 66.9 °F 87% 30.03 in 9.0 mi SSW 4.6 mph - N/A   Scattered Clouds
4:53 AM 70.0 °F - 66.9 °F 90% 30.01 in 9.0 mi SSW 3.5 mph - N/A   Scattered Clouds
5:53 AM 69.1 °F - 66.9 °F 93% 30.02 in 8.0 mi South 3.5 mph - N/A   Scattered Clouds
6:53 AM 69.1 °F - 66.9 °F 93% 30.04 in 6.0 mi South 4.6 mph - N/A   Mostly Cloudy
7:53 AM 71.1 °F - 68.0 °F 90% 30.05 in 6.0 mi SSW 3.5 mph - N/A   Mostly Cloudy
8:53 AM 73.9 °F - 68.0 °F 82% 30.05 in 8.0 mi SSW 3.5 mph - N/A   Scattered Clouds
9:53 AM 80.1 °F 82.9 °F 69.1 °F 69% 30.06 in 10.0 mi SW 9.2 mph - N/A   Partly Cloudy
10:53 AM 82.9 °F 86.5 °F 69.1 °F 63% 30.06 in 10.0 mi SW 9.2 mph - N/A   Scattered Clouds
11:53 AM 84.9 °F 88.2 °F 68.0 °F 57% 30.03 in 10.0 mi SSW 10.4 mph - N/A   Mostly Cloudy
12:53 PM 87.1 °F 90.6 °F 68.0 °F 53% 30.03 in 10.0 mi SW 9.2 mph 19.6 mph N/A   Mostly Cloudy
1:53 PM 86.0 °F 88.8 °F 66.9 °F 53% 30.01 in 9.0 mi SSW 9.2 mph - N/A   Mostly Cloudy
2:53 PM 89.1 °F 92.1 °F 66.9 °F 48% 29.99 in 9.0 mi SW 8.1 mph - N/A   Scattered Clouds
3:53 PM 87.1 °F 89.2 °F 66.0 °F 49% 29.96 in 9.0 mi SW 10.4 mph - N/A   Mostly Cloudy
4:53 PM 86.0 °F 91.5 °F 71.1 °F 61% 29.96 in 8.0 mi North 4.6 mph - 0.00 in   Mostly Cloudy
5:40 PM 80.6 °F 84.6 °F 71.6 °F 74% 29.97 in 8.0 mi SE 4.6 mph - N/A Thunderstorm Thunderstorm
5:53 PM 82.9 °F 87.5 °F 71.1 °F 67% 29.96 in 8.0 mi Variable 3.5 mph - N/A Thunderstorm Thunderstorm
6:13 PM 86.0 °F 88.2 °F 66.2 °F 51% 29.97 in 10.0 mi WSW 17.3 mph 24.2 mph N/A   Overcast
6:53 PM 84.0 °F 86.5 °F 66.9 °F 56% 29.99 in 10.0 mi West 11.5 mph 20.7 mph N/A   Overcast
7:53 PM 79.0 °F - 69.1 °F 72% 30.00 in 6.0 mi WSW 6.9 mph - 0.00 in Rain Light Rain
8:53 PM 75.0 °F - 64.9 °F 71% 30.02 in 10.0 mi NW 6.9 mph - 0.00 in   Overcast
9:53 PM 73.9 °F - 66.0 °F 76% 30.02 in 10.0 mi Calm Calm - 0.00 in   Mostly Cloudy
10:53 PM 72.0 °F - 66.0 °F 81% 30.02 in 10.0 mi SSW 4.6 mph - N/A   Mostly Cloudy
11:53 PM 71.1 °F - 66.9 °F 87% 30.02 in 10.0 mi South 4.6 mph - N/A   Scattered Clouds